Location: Unspecified
(64.9000°N, 0.0000°E)
Time: 21:55:10
(UTC+00:00)

Transit 2A Rocket - Pass Details

Date: 18 June 2019
Orbit: 588 x 915 km, 66.7° (Epoch: 15 July)

Event Time Altitude Azimuth Distance (km) Brightness Sun altitude
Rises 13:21:48 0° 236° (SW) 3,539 9.0 46.5°
Reaches altitude 10° 13:24:22 10° 235° (SW) 2,582 8.6 46.4°
Maximum altitude 13:30:24 78° 151° (SSE) 892 6.4 46.0°
Drops below altitude 10° 13:36:03 10° 66° (ENE) 2,424 7.3 45.7°
Sets 13:38:23 0° 65° (ENE) 3,309 7.9 45.6°
